Regional Weather Roundup
Issued by NWS Midland/Odessa, TX

Home | Current Version | Previous Version | Text Only | Print | Product List | Glossary On
Versions: 1 2 3 4 5 6 7 8 9 10 11 12 13 14 15 16 17 18 19 20 21 22 23 24 25 26 27 28 29 30 31 32 33 34 35 36 37 38 39 40 41 42 43 44 45 46 47 48 49 50
000
ASUS44 KMAF 170810
RWRMAF
MIDLAND AREA WEATHER ROUNDUP
NATIONAL WEATHER SERVICE MIDLAND TX
300 AM CDT THU AUG 17 2017

...IN SOUTHWEST TEXAS AND SOUTHEAST NEW MEXICO...

CITY           SKY/WX    TMP DP  RH WIND       PRES   REMARKS
ALPINE         CLEAR     69  56  64 SW3       30.19S
ANDREWS        FAIR      74  67  79 S7        30.05F
ARTESIA        CLEAR     70  55  60 N5        30.06S
BIG SPRING     CLOUDY    72  66  79 CALM      30.04F
CARLSBAD       CLEAR     71  63  75 SE3       30.03R
DRYDEN           N/A     77  72  84 NE3       29.98R
FORT STOCKTON  CLOUDY    78  62  57 S5        30.02R
GUAD PASS      CLEAR     74  44  34 E12       30.21R
HOBBS          CLEAR     70  64  83 SE6       30.07F
MARFA          CLEAR     63  58  83 N7        30.18S
MIDLAND AIRPK  PTCLDY    77  65  67 SE12      30.04F
MIDLAND INTL   PTCLDY    77  66  68 SE16      30.03F
ODESSA         CLEAR     75  68  78 SE12      30.05S
PECOS          CLEAR     73  59  62 SE5       29.98R
PRESIDIO       FAIR      82  63  51 N6        30.03S
SEMINOLE       CLEAR     68  62  81 E3        30.07F
SNYDER         CLOUDY    71  64  79 SW6       30.02S
WINK           CLEAR     78  67  68 E13       29.99S
$$
...OTHER STATIONS IN TEXAS...

CITY           SKY/WX    TMP DP  RH WIND       PRES   REMARKS
ABILENE        CLOUDY    77  65  66 S9        29.96R
AMARILLO       CLEAR     69  58  67 E8        30.10R
AUSTIN         MOCLDY    82  77  84 S15       29.97R
BROWNSVILLE    PTCLDY    81  79  94 S10       29.98S
CORPUS CHRISTI PTCLDY    83  79  88 S14G20    29.97S
DALLAS FTW     MOCLDY    86  72  62 S15       29.92R
DEL RIO        CLOUDY    81  71  71 E5        29.93R
EL PASO        PTCLDY    74  60  61 E6        30.05S
HOUSTON INT    PTCLDY    84  78  82 S7        29.99S
LUBBOCK        CLEAR     72  64  78 S3        30.07
SAN ANGELO     CLOUDY    73  65  75 S12       29.97F
SAN ANTONIO    MOCLDY    81  74  79 S10       29.98F
WACO           CLOUDY    83  74  74 S13       29.97R
WICHITA FALLS  NOT AVBL
$$
...OTHER LOCATIONS IN NEW MEXICO...

CITY           SKY/WX    TMP DP  RH WIND       PRES   REMARKS
ALAMOGORDO     CLEAR     72  46  40 E7        30.08F
ALBUQUERQUE    PTCLDY    67  41  38 SE6       30.16R
CANNON AFB     CLEAR     67  67 100 SE9       30.13S
CLOVIS         NOT AVBL
HOLLOMAN AFB   CLEAR     69  51  51 E6        30.08F
ROSWELL        CLEAR     74  54  49 SE7       30.06R
RUIDOSO        CLEAR     63  39  42 SW6       30.29F
SANTA FE       CLOUDY    61  37  41 NE7       30.22S
TRUTH OR CONSE CLEAR     73  39  29 NW10      30.11F
TUCUMCARI      CLEAR     64  57  78 NE6       30.09R
$$



USA.gov is the U.S. government's official web portal to all federal, state and local government web resources and services.